Time,TemperatureF,DewpointF,PressureIn,WindDirection,WindDirectionDegrees,WindSpeedMPH,WindSpeedGustMPH,Humidity,HourlyPrecipIn,Conditions,Clouds,dailyrainin,SoftwareType,DateUTC
2013-02-14 00:00:00,50.1,35.0,30.09,NNE,14,6.0,6.0,56,0.00,CLR,,0.00,WeatherDisplay:10.37,2013-02-13 23:00:00,
2013-02-14 00:05:00,50.2,35.1,30.10,North,4,5.8,5.8,56,0.00,CLR,,0.00,WeatherDisplay:10.37,2013-02-13 23:05:00,
2013-02-14 00:10:00,50.0,34.9,30.10,NE,39,6.9,6.9,56,0.00,CLR,,0.00,WeatherDisplay:10.37,2013-02-13 23:10:00,
2013-02-14 00:15:00,50.0,34.9,30.10,NNE,16,5.8,5.8,56,0.00,CLR,,0.00,WeatherDisplay:10.37,2013-02-13 23:15:00,
2013-02-14 00:20:00,49.8,34.7,30.10,NNE,16,5.0,5.0,56,0.00,CLR,,0.00,WeatherDisplay:10.37,2013-02-13 23:20:00,
2013-02-14 00:25:00,49.8,34.7,30.10,NE,43,8.1,8.1,56,0.00,CLR,,0.00,WeatherDisplay:10.37,2013-02-13 23:25:00,
2013-02-14 00:30:00,49.8,34.3,30.10,NNE,31,9.2,9.2,55,0.00,CLR,,0.00,WeatherDisplay:10.37,2013-02-13 23:30:00,
2013-02-14 00:35:00,49.9,33.9,30.10,NE,35,8.1,8.1,54,0.00,CLR,,0.00,WeatherDisplay:10.37,2013-02-13 23:35:00,
2013-02-14 00:40:00,50.0,34.0,30.10,North,8,9.2,9.2,54,0.00,CLR,,0.00,WeatherDisplay:10.37,2013-02-13 23:40:00,
2013-02-14 00:45:00,50.0,34.0,30.10,NE,39,8.1,8.1,54,0.00,CLR,,0.00,WeatherDisplay:10.37,2013-02-13 23:45:00,
2013-02-14 00:50:00,50.0,34.0,30.10,NNE,21,8.1,8.1,54,0.00,CLR,,0.00,WeatherDisplay:10.37,2013-02-13 23:50:00,
2013-02-14 00:55:00,50.1,34.1,30.10,NE,52,9.2,9.2,54,0.00,CLR,,0.00,WeatherDisplay:10.37,2013-02-13 23:55:00,
2013-02-14 01:00:00,50.0,34.5,30.10,NNE,22,6.9,6.9,55,0.00,CLR,,0.00,WeatherDisplay:10.37,2013-02-14 00:00:00,
2013-02-14 01:05:00,49.8,34.3,30.10,NE,36,6.9,6.9,55,0.00,CLR,,0.00,WeatherDisplay:10.37,2013-02-14 00:05:00,
2013-02-14 01:10:00,50.0,34.5,30.09,NE,40,7.0,7.0,55,0.00,CLR,,0.00,WeatherDisplay:10.37,2013-02-14 00:10:00,
2013-02-14 01:15:00,50.0,34.9,30.10,NNE,20,6.9,6.9,56,0.00,CLR,,0.00,WeatherDisplay:10.37,2013-02-14 00:15:00,
2013-02-14 01:20:00,49.9,35.3,30.09,NNE,14,9.2,9.2,57,0.00,CLR,,0.00,WeatherDisplay:10.37,2013-02-14 00:20:00,
2013-02-14 01:25:00,49.9,35.3,30.10,North,8,8.1,8.1,57,0.00,CLR,,0.00,WeatherDisplay:10.37,2013-02-14 00:25:00,
2013-02-14 01:30:00,49.8,35.2,30.10,North,4,8.1,8.1,57,0.00,CLR,,0.00,WeatherDisplay:10.37,2013-02-14 00:30:00,
2013-02-14 01:35:00,49.8,35.6,30.09,NNW,348,6.9,6.9,58,0.00,CLR,,0.00,WeatherDisplay:10.37,2013-02-14 00:35:00,
2013-02-14 01:40:00,49.7,35.9,30.10,North,8,8.1,8.1,59,0.00,CLR,,0.00,WeatherDisplay:10.37,2013-02-14 00:40:00,
2013-02-14 01:45:00,49.7,35.9,30.10,North,10,6.9,6.9,59,0.00,CLR,,0.00,WeatherDisplay:10.37,2013-02-14 00:45:00,
2013-02-14 01:50:00,49.8,36.0,30.10,NNE,16,5.8,5.8,59,0.00,CLR,,0.00,WeatherDisplay:10.37,2013-02-14 00:50:00,
2013-02-14 01:55:00,49.7,35.9,30.10,NNE,14,8.1,8.1,59,0.00,CLR,,0.00,WeatherDisplay:10.37,2013-02-14 00:55:00,
2013-02-14 02:00:00,49.6,36.3,30.10,NNE,33,6.9,6.9,60,0.00,CLR,,0.00,WeatherDisplay:10.37,2013-02-14 01:00:00,
2013-02-14 02:05:00,49.4,36.5,30.10,NE,35,5.8,5.8,61,0.00,CLR,,0.00,WeatherDisplay:10.37,2013-02-14 01:05:00,
2013-02-14 02:10:00,49.5,36.6,30.10,NNE,33,6.9,6.9,61,0.00,CLR,,0.00,WeatherDisplay:10.37,2013-02-14 01:10:00,
2013-02-14 02:15:00,49.4,36.5,30.10,NE,35,5.8,5.8,61,0.00,CLR,,0.00,WeatherDisplay:10.37,2013-02-14 01:15:00,
2013-02-14 02:20:00,49.4,36.9,30.10,NNE,33,6.9,6.9,62,0.00,CLR,,0.00,WeatherDisplay:10.37,2013-02-14 01:20:00,
2013-02-14 02:25:00,49.4,37.3,30.10,NNE,12,5.8,5.8,63,0.00,CLR,,0.00,WeatherDisplay:10.37,2013-02-14 01:25:00,
2013-02-14 02:30:00,49.4,37.3,30.10,NNE,25,4.6,4.6,63,0.00,CLR,,0.00,WeatherDisplay:10.37,2013-02-14 01:30:00,
2013-02-14 02:35:00,49.4,37.3,30.10,NNE,30,4.6,4.8,63,0.00,CLR,,0.00,WeatherDisplay:10.37,2013-02-14 01:35:00,
2013-02-14 02:40:00,49.4,37.7,30.10,NE,35,6.0,6.0,64,0.00,CLR,,0.00,WeatherDisplay:10.37,2013-02-14 01:40:00,
2013-02-14 02:45:00,49.4,37.7,30.10,NNE,30,3.5,3.5,64,0.00,CLR,,0.00,WeatherDisplay:10.37,2013-02-14 01:45:00,
2013-02-14 02:50:00,49.4,38.1,30.10,NE,34,5.8,5.8,65,0.00,CLR,,0.00,WeatherDisplay:10.37,2013-02-14 01:50:00,
2013-02-14 02:55:00,49.4,38.1,30.11,NNE,18,4.6,4.6,65,0.00,CLR,,0.00,WeatherDisplay:10.37,2013-02-14 01:55:00,
2013-02-14 03:00:00,49.3,38.0,30.10,NE,40,4.0,4.0,65,0.00,CLR,,0.00,WeatherDisplay:10.37,2013-02-14 02:00:00,
2013-02-14 03:05:00,49.2,37.9,30.10,North,4,4.0,4.0,65,0.00,CLR,,0.00,WeatherDisplay:10.37,2013-02-14 02:05:00,
2013-02-14 03:10:00,49.2,37.9,30.11,North,354,3.5,3.5,65,0.00,CLR,,0.00,WeatherDisplay:10.37,2013-02-14 02:10:00,
2013-02-14 03:15:00,49.2,37.9,30.10,North,10,3.5,3.5,65,0.00,CLR,,0.00,WeatherDisplay:10.37,2013-02-14 02:15:00,
2013-02-14 03:20:00,49.4,38.1,30.11,North,349,3.5,3.5,65,0.00,CLR,,0.00,WeatherDisplay:10.37,2013-02-14 02:20:00,
2013-02-14 03:25:00,49.5,38.2,30.11,North,349,3.5,3.5,65,0.00,CLR,,0.00,WeatherDisplay:10.37,2013-02-14 02:25:00,
2013-02-14 03:30:00,49.6,38.3,30.11,NNW,343,3.5,3.5,65,0.00,CLR,,0.00,WeatherDisplay:10.37,2013-02-14 02:30:00,
2013-02-14 03:35:00,49.7,37.6,30.10,NNE,12,3.5,3.5,63,0.00,CLR,,0.00,WeatherDisplay:10.37,2013-02-14 02:35:00,
2013-02-14 03:40:00,49.7,37.6,30.10,NE,37,3.5,3.5,63,0.00,CLR,,0.00,WeatherDisplay:10.37,2013-02-14 02:40:00,
2013-02-14 03:45:00,49.6,37.5,30.10,NNE,33,2.3,2.3,63,0.00,CLR,,0.00,WeatherDisplay:10.37,2013-02-14 02:45:00,
2013-02-14 03:50:00,49.6,37.5,30.10,NNE,33,3.0,3.0,63,0.00,CLR,,0.00,WeatherDisplay:10.37,2013-02-14 02:50:00,
2013-02-14 03:55:00,49.6,37.5,30.10,NE,46,3.5,3.5,63,0.00,CLR,,0.00,WeatherDisplay:10.37,2013-02-14 02:55:00,
2013-02-14 04:00:00,49.6,37.5,30.10,NE,47,2.3,2.3,63,0.00,CLR,,0.00,WeatherDisplay:10.37,2013-02-14 03:00:00,
2013-02-14 04:05:00,49.5,37.4,30.10,NE,48,2.3,2.3,63,0.00,CLR,,0.00,WeatherDisplay:10.37,2013-02-14 03:05:00,
2013-02-14 04:10:00,49.5,37.4,30.10,NE,46,1.1,1.1,63,0.00,CLR,,0.00,WeatherDisplay:10.37,2013-02-14 03:10:00,
2013-02-14 04:15:00,49.5,37.4,30.10,NE,47,0.0,0.0,63,0.00,CLR,,0.00,WeatherDisplay:10.37,2013-02-14 03:15:00,
2013-02-14 04:20:00,49.4,37.3,30.10,East,91,2.3,2.3,63,0.00,CLR,,0.00,WeatherDisplay:10.37,2013-02-14 03:20:00,
2013-02-14 04:25:00,49.3,37.6,30.09,ESE,102,2.3,2.3,64,0.00,CLR,,0.00,WeatherDisplay:10.37,2013-02-14 03:25:00,
2013-02-14 04:30:00,49.3,37.6,30.10,ESE,102,1.1,1.1,64,0.00,CLR,,0.00,WeatherDisplay:10.37,2013-02-14 03:30:00,
2013-02-14 04:35:00,49.2,37.5,30.09,SE,125,1.1,1.1,64,0.00,CLR,,0.00,WeatherDisplay:10.37,2013-02-14 03:35:00,
2013-02-14 04:40:00,49.2,37.5,30.09,SE,125,1.1,1.1,64,0.00,CLR,,0.00,WeatherDisplay:10.37,2013-02-14 03:40:00,
2013-02-14 04:45:00,49.2,37.5,30.09,SE,125,1.1,1.1,64,0.00,CLR,,0.00,WeatherDisplay:10.37,2013-02-14 03:45:00,
2013-02-14 04:50:00,49.2,37.5,30.09,SE,125,2.3,2.3,64,0.00,CLR,,0.00,WeatherDisplay:10.37,2013-02-14 03:50:00,
2013-02-14 04:55:00,49.1,37.4,30.09,SE,125,1.1,1.1,64,0.00,CLR,,0.00,WeatherDisplay:10.37,2013-02-14 03:55:00,
2013-02-14 05:00:00,49.1,37.4,30.10,SE,125,2.3,2.3,64,0.00,CLR,,0.00,WeatherDisplay:10.37,2013-02-14 04:00:00,
2013-02-14 05:05:00,49.1,37.4,30.10,SE,139,2.3,2.3,64,0.00,CLR,,0.00,WeatherDisplay:10.37,2013-02-14 04:05:00,
2013-02-14 05:10:00,49.1,37.4,30.09,South,171,3.5,3.5,64,0.00,CLR,,0.00,WeatherDisplay:10.37,2013-02-14 04:10:00,
2013-02-14 05:15:00,49.1,37.8,30.09,South,172,3.5,3.5,65,0.00,CLR,,0.00,WeatherDisplay:10.37,2013-02-14 04:15:00,
2013-02-14 05:20:00,49.1,37.8,30.10,South,172,2.3,2.3,65,0.00,CLR,,0.00,WeatherDisplay:10.37,2013-02-14 04:20:00,
2013-02-14 05:25:00,49.1,37.4,30.10,SSE,165,2.3,2.3,64,0.00,CLR,,0.00,WeatherDisplay:10.37,2013-02-14 04:25:00,
2013-02-14 05:30:00,49.0,37.3,30.10,SSE,163,2.3,2.3,64,0.00,CLR,,0.00,WeatherDisplay:10.37,2013-02-14 04:30:00,
2013-02-14 05:35:00,49.0,37.7,30.10,SSE,165,3.0,3.0,65,0.00,CLR,,0.00,WeatherDisplay:10.37,2013-02-14 04:35:00,
2013-02-14 05:40:00,48.9,37.6,30.10,SE,142,3.5,3.5,65,0.00,CLR,,0.00,WeatherDisplay:10.37,2013-02-14 04:40:00,
2013-02-14 05:45:00,48.7,37.8,30.10,SE,130,3.5,3.5,66,0.00,CLR,,0.00,WeatherDisplay:10.37,2013-02-14 04:45:00,
2013-02-14 05:50:00,48.6,37.7,30.10,SE,136,3.5,3.5,66,0.00,CLR,,0.00,WeatherDisplay:10.37,2013-02-14 04:50:00,
2013-02-14 05:55:00,48.5,38.0,30.10,SE,130,3.5,3.5,67,0.00,CLR,,0.00,WeatherDisplay:10.37,2013-02-14 04:55:00,
2013-02-14 06:00:00,48.5,37.7,30.10,SE,139,3.5,3.5,66,0.00,CLR,,0.00,WeatherDisplay:10.37,2013-02-14 05:00:00,
2013-02-14 06:05:00,48.4,37.6,30.10,SE,135,3.5,3.5,66,0.00,CLR,,0.00,WeatherDisplay:10.37,2013-02-14 05:05:00,
2013-02-14 06:10:00,48.3,37.5,30.10,ESE,121,3.5,3.5,66,0.00,CLR,,0.00,WeatherDisplay:10.37,2013-02-14 05:10:00,
2013-02-14 06:15:00,48.2,37.4,30.10,SE,136,3.5,3.5,66,0.00,CLR,,0.00,WeatherDisplay:10.37,2013-02-14 05:15:00,
2013-02-14 06:20:00,48.2,37.8,30.10,SE,130,3.5,3.5,67,0.00,CLR,,0.00,WeatherDisplay:10.37,2013-02-14 05:20:00,
2013-02-14 06:25:00,48.2,37.8,30.10,ESE,119,5.8,5.8,67,0.00,CLR,,0.00,WeatherDisplay:10.37,2013-02-14 05:25:00,
2013-02-14 06:30:00,48.2,37.8,30.10,SE,140,6.9,6.9,67,0.00,CLR,,0.00,WeatherDisplay:10.37,2013-02-14 05:30:00,
2013-02-14 06:35:00,48.3,37.8,30.10,ESE,106,4.6,4.6,67,0.00,CLR,,0.00,WeatherDisplay:10.37,2013-02-14 05:35:00,
2013-02-14 06:40:00,48.4,37.9,30.11,ESE,105,6.9,6.9,67,0.00,CLR,,0.00,WeatherDisplay:10.37,2013-02-14 05:40:00,
2013-02-14 06:45:00,48.5,38.0,30.10,East,101,6.9,6.9,67,0.00,CLR,,0.00,WeatherDisplay:10.37,2013-02-14 05:45:00,
2013-02-14 06:50:00,48.5,38.0,30.10,SE,124,7.0,7.0,67,0.00,CLR,,0.00,WeatherDisplay:10.37,2013-02-14 05:50:00,
2013-02-14 06:55:00,48.5,38.0,30.11,SE,133,3.5,3.5,67,0.00,CLR,,0.00,WeatherDisplay:10.37,2013-02-14 05:55:00,
2013-02-14 07:00:00,48.4,37.9,30.11,SE,141,2.3,2.3,67,0.00,CLR,,0.00,WeatherDisplay:10.37,2013-02-14 06:00:00,
2013-02-14 07:05:00,48.3,37.8,30.11,SE,129,3.5,3.5,67,0.00,CLR,,0.00,WeatherDisplay:10.37,2013-02-14 06:05:00,
2013-02-14 07:10:00,48.4,38.3,30.11,SE,135,3.5,3.5,68,0.00,CLR,,0.00,WeatherDisplay:10.37,2013-02-14 06:10:00,
2013-02-14 07:15:00,48.5,38.8,30.11,SE,145,2.3,2.3,69,0.00,CLR,,0.00,WeatherDisplay:10.37,2013-02-14 06:15:00,
2013-02-14 07:20:00,48.6,38.9,30.11,SSE,147,4.6,4.6,69,0.00,CLR,,0.00,WeatherDisplay:10.37,2013-02-14 06:20:00,
2013-02-14 07:25:00,48.6,38.9,30.11,SSE,148,3.5,3.5,69,0.00,CLR,,0.00,WeatherDisplay:10.37,2013-02-14 06:25:00,
2013-02-14 07:30:00,48.6,38.9,30.11,SSE,160,3.5,3.5,69,0.00,CLR,,0.00,WeatherDisplay:10.37,2013-02-14 06:30:00,
2013-02-14 07:35:00,48.7,39.4,30.11,SE,143,5.8,5.8,70,0.00,CLR,,0.00,WeatherDisplay:10.37,2013-02-14 06:35:00,
2013-02-14 07:40:00,48.9,39.5,30.11,SSE,154,3.5,3.5,70,0.00,CLR,,0.00,WeatherDisplay:10.37,2013-02-14 06:40:00,
2013-02-14 07:45:00,49.1,39.4,30.11,SSE,159,4.0,4.0,69,0.00,CLR,,0.00,WeatherDisplay:10.37,2013-02-14 06:45:00,
2013-02-14 07:50:00,49.2,39.5,30.11,SSE,153,4.0,4.0,69,0.00,CLR,,0.00,WeatherDisplay:10.37,2013-02-14 06:50:00,
2013-02-14 07:55:00,49.3,39.6,30.11,SSE,167,3.5,3.5,69,0.00,CLR,,0.00,WeatherDisplay:10.37,2013-02-14 06:55:00,
2013-02-14 08:00:00,49.4,39.3,30.11,South,176,5.8,5.8,68,0.00,CLR,,0.00,WeatherDisplay:10.37,2013-02-14 07:00:00,
2013-02-14 08:05:00,49.5,39.0,30.11,SSE,167,6.0,6.0,67,0.00,CLR,,0.00,WeatherDisplay:10.37,2013-02-14 07:05:00,
2013-02-14 08:10:00,49.5,39.0,30.11,SSE,160,5.8,5.8,67,0.00,CLR,,0.00,WeatherDisplay:10.37,2013-02-14 07:10:00,
2013-02-14 08:15:00,49.4,38.9,30.12,South,170,7.0,7.0,67,0.00,CLR,,0.00,WeatherDisplay:10.37,2013-02-14 07:15:00,
2013-02-14 08:20:00,49.5,39.0,30.12,South,173,5.8,5.8,67,0.00,CLR,,0.00,WeatherDisplay:10.37,2013-02-14 07:20:00,
2013-02-14 08:25:00,49.6,39.1,30.12,South,177,4.6,4.6,67,0.00,CLR,,0.00,WeatherDisplay:10.37,2013-02-14 07:25:00,
2013-02-14 08:30:00,49.6,39.1,30.12,South,185,5.8,5.8,67,0.00,CLR,,0.00,WeatherDisplay:10.37,2013-02-14 07:30:00,
2013-02-14 08:35:00,49.7,39.2,30.12,SSE,162,5.8,5.8,67,0.00,CLR,,0.00,WeatherDisplay:10.37,2013-02-14 07:35:00,
2013-02-14 08:40:00,49.7,39.2,30.12,South,174,3.5,3.5,67,0.00,CLR,,0.00,WeatherDisplay:10.37,2013-02-14 07:40:00,
2013-02-14 08:45:00,49.8,39.7,30.13,SSE,156,5.8,5.8,68,0.00,CLR,,0.00,WeatherDisplay:10.37,2013-02-14 07:45:00,
2013-02-14 08:50:00,50.0,39.8,30.13,SSE,166,6.9,6.9,68,0.00,CLR,,0.00,WeatherDisplay:10.37,2013-02-14 07:50:00,
2013-02-14 08:55:00,50.1,39.6,30.12,South,178,5.8,5.8,67,0.00,CLR,,0.00,WeatherDisplay:10.37,2013-02-14 07:55:00,
2013-02-14 09:00:00,50.2,40.0,30.13,South,172,5.8,5.8,68,0.00,CLR,,0.00,WeatherDisplay:10.37,2013-02-14 08:00:00,
2013-02-14 09:05:00,50.3,39.8,30.13,South,187,6.9,6.9,67,0.00,CLR,,0.00,WeatherDisplay:10.37,2013-02-14 08:05:00,
2013-02-14 09:10:00,50.3,39.8,30.13,South,179,5.8,5.8,67,0.00,CLR,,0.00,WeatherDisplay:10.37,2013-02-14 08:10:00,
2013-02-14 09:15:00,50.4,39.9,30.13,South,184,6.9,6.9,67,0.00,CLR,,0.00,WeatherDisplay:10.37,2013-02-14 08:15:00,
2013-02-14 09:20:00,50.4,39.9,30.13,South,182,4.6,4.6,67,0.00,CLR,,0.00,WeatherDisplay:10.37,2013-02-14 08:20:00,
2013-02-14 09:25:00,50.4,40.2,30.13,South,185,5.8,5.8,68,0.00,CLR,,0.00,WeatherDisplay:10.37,2013-02-14 08:25:00,
2013-02-14 09:30:00,50.5,40.3,30.13,South,178,6.9,6.9,68,0.00,CLR,,0.00,WeatherDisplay:10.37,2013-02-14 08:30:00,
2013-02-14 09:35:00,50.5,40.3,30.13,SSE,160,6.0,6.0,68,0.00,CLR,,0.00,WeatherDisplay:10.37,2013-02-14 08:35:00,
2013-02-14 09:40:00,50.7,40.5,30.14,South,178,4.6,4.6,68,0.00,CLR,,0.00,WeatherDisplay:10.37,2013-02-14 08:40:00,
2013-02-14 09:45:00,50.9,41.1,30.14,South,187,5.8,5.8,69,0.00,CLR,,0.00,WeatherDisplay:10.37,2013-02-14 08:45:00,
2013-02-14 09:50:00,50.9,41.1,30.14,SSE,166,4.6,4.6,69,0.00,CLR,,0.00,WeatherDisplay:10.37,2013-02-14 08:50:00,
2013-02-14 09:55:00,50.9,41.1,30.14,SSE,160,4.6,4.6,69,0.00,CLR,,0.00,WeatherDisplay:10.37,2013-02-14 08:55:00,
2013-02-14 10:00:00,51.0,41.2,30.14,SSE,161,5.8,5.8,69,0.00,CLR,,0.00,WeatherDisplay:10.37,2013-02-14 09:00:00,
2013-02-14 10:05:00,51.4,41.6,30.14,South,176,6.9,6.9,69,0.00,CLR,,0.00,WeatherDisplay:10.37,2013-02-14 09:05:00,
2013-02-14 10:10:00,51.8,41.9,30.15,SSE,153,6.0,6.0,69,0.00,CLR,,0.00,WeatherDisplay:10.37,2013-02-14 09:10:00,
2013-02-14 10:15:00,51.8,41.9,30.15,South,175,5.8,5.8,69,0.00,CLR,,0.00,WeatherDisplay:10.37,2013-02-14 09:15:00,
2013-02-14 10:20:00,52.2,42.3,30.15,South,179,6.9,6.9,69,0.00,CLR,,0.00,WeatherDisplay:10.37,2013-02-14 09:20:00,
2013-02-14 10:25:00,52.7,42.4,30.15,South,181,6.0,6.0,68,0.00,CLR,,0.00,WeatherDisplay:10.37,2013-02-14 09:25:00,
2013-02-14 10:30:00,52.7,42.4,30.15,South,181,6.9,6.9,68,0.00,CLR,,0.00,WeatherDisplay:10.37,2013-02-14 09:30:00,
2013-02-14 10:35:00,52.9,41.8,30.15,SSE,161,9.2,9.2,66,0.00,CLR,,0.00,WeatherDisplay:10.37,2013-02-14 09:35:00,
2013-02-14 10:40:00,53.3,42.6,30.15,South,191,8.1,8.1,67,0.00,CLR,,0.00,WeatherDisplay:10.37,2013-02-14 09:40:00,
2013-02-14 10:45:00,53.2,42.5,30.15,South,179,9.2,9.2,67,0.00,CLR,,0.00,WeatherDisplay:10.37,2013-02-14 09:45:00,
2013-02-14 10:50:00,53.6,42.9,30.15,SSW,194,10.4,10.4,67,0.00,CLR,,0.00,WeatherDisplay:10.37,2013-02-14 09:50:00,
2013-02-14 10:55:00,53.3,42.6,30.15,South,172,12.0,12.0,67,0.00,CLR,,0.00,WeatherDisplay:10.37,2013-02-14 09:55:00,
2013-02-14 11:00:00,52.9,42.2,30.16,SSE,162,11.5,11.5,67,0.00,CLR,,0.00,WeatherDisplay:10.37,2013-02-14 10:00:00,
2013-02-14 11:05:00,53.0,43.1,30.16,SSW,201,8.1,8.1,69,0.00,CLR,,0.00,WeatherDisplay:10.37,2013-02-14 10:05:00,
2013-02-14 11:10:00,53.3,43.0,30.16,SSE,164,9.2,9.2,68,0.00,CLR,,0.00,WeatherDisplay:10.37,2013-02-14 10:10:00,
2013-02-14 11:15:00,53.3,42.6,30.16,South,191,8.1,8.1,67,0.00,CLR,,0.00,WeatherDisplay:10.37,2013-02-14 10:15:00,
2013-02-14 11:20:00,53.1,42.4,30.16,South,191,11.5,11.5,67,0.00,CLR,,0.00,WeatherDisplay:10.37,2013-02-14 10:20:00,
2013-02-14 11:25:00,53.2,42.9,30.16,South,177,10.4,10.4,68,0.00,CLR,,0.00,WeatherDisplay:10.37,2013-02-14 10:25:00,
2013-02-14 11:30:00,53.3,43.0,30.16,SE,143,11.5,11.5,68,0.00,CLR,,0.00,WeatherDisplay:10.37,2013-02-14 10:30:00,
2013-02-14 11:35:00,53.3,42.2,30.16,South,183,11.5,11.5,66,0.00,CLR,,0.00,WeatherDisplay:10.37,2013-02-14 10:35:00,
2013-02-14 11:40:00,53.4,42.3,30.16,South,170,11.5,11.5,66,0.00,CLR,,0.00,WeatherDisplay:10.37,2013-02-14 10:40:00,
2013-02-14 11:45:00,53.2,42.5,30.16,SSW,193,10.4,10.4,67,0.00,CLR,,0.00,WeatherDisplay:10.37,2013-02-14 10:45:00,
2013-02-14 11:50:00,53.5,43.2,30.17,SSW,195,9.2,9.2,68,0.00,CLR,,0.00,WeatherDisplay:10.37,2013-02-14 10:50:00,
2013-02-14 11:55:00,53.6,42.9,30.17,South,187,9.2,9.2,67,0.00,CLR,,0.00,WeatherDisplay:10.37,2013-02-14 10:55:00,
2013-02-14 12:00:00,53.8,43.1,30.17,SSE,167,9.2,9.2,67,0.00,CLR,,0.00,WeatherDisplay:10.37,2013-02-14 11:00:00,
2013-02-14 12:05:00,54.1,43.4,30.17,South,177,11.5,11.5,67,0.00,CLR,,0.00,WeatherDisplay:10.37,2013-02-14 11:05:00,
2013-02-14 12:10:00,53.6,42.9,30.17,South,182,10.4,10.4,67,0.00,CLR,,0.00,WeatherDisplay:10.37,2013-02-14 11:10:00,
2013-02-14 12:15:00,53.4,43.1,30.17,SSW,200,11.5,11.5,68,0.00,CLR,,0.00,WeatherDisplay:10.37,2013-02-14 11:15:00,
2013-02-14 12:20:00,53.4,43.1,30.17,South,185,12.7,12.7,68,0.00,CLR,,0.00,WeatherDisplay:10.37,2013-02-14 11:20:00,
2013-02-14 12:25:00,53.1,43.2,30.17,SSE,165,13.8,13.8,69,0.00,CLR,,0.00,WeatherDisplay:10.37,2013-02-14 11:25:00,
2013-02-14 12:30:00,53.3,43.4,30.16,SSE,162,12.7,12.7,69,0.00,CLR,,0.00,WeatherDisplay:10.37,2013-02-14 11:30:00,
2013-02-14 12:35:00,54.2,44.2,30.16,SSE,167,9.2,9.2,69,0.00,CLR,,0.00,WeatherDisplay:10.37,2013-02-14 11:35:00,
2013-02-14 12:40:00,54.3,43.6,30.16,South,186,12.7,12.7,67,0.00,CLR,,0.00,WeatherDisplay:10.37,2013-02-14 11:40:00,
2013-02-14 12:45:00,53.7,43.4,30.16,SSW,211,12.7,12.7,68,0.00,CLR,,0.00,WeatherDisplay:10.37,2013-02-14 11:45:00,
2013-02-14 12:50:00,54.3,44.0,30.16,South,189,10.4,10.4,68,0.00,CLR,,0.00,WeatherDisplay:10.37,2013-02-14 11:50:00,
2013-02-14 12:55:00,54.3,43.6,30.16,SSW,197,11.5,11.5,67,0.00,CLR,,0.00,WeatherDisplay:10.37,2013-02-14 11:55:00,
2013-02-14 13:00:00,54.2,43.9,30.15,SSE,163,13.8,13.8,68,0.00,CLR,,0.00,WeatherDisplay:10.37,2013-02-14 12:00:00,
2013-02-14 13:05:00,54.4,44.4,30.16,South,177,13.8,13.8,69,0.00,CLR,,0.00,WeatherDisplay:10.37,2013-02-14 12:05:00,
2013-02-14 13:10:00,54.4,44.1,30.15,South,179,13.8,13.8,68,0.00,CLR,,0.00,WeatherDisplay:10.37,2013-02-14 12:10:00,
2013-02-14 13:15:00,54.4,44.4,30.15,SSW,203,10.4,10.4,69,0.00,CLR,,0.00,WeatherDisplay:10.37,2013-02-14 12:15:00,
2013-02-14 13:20:00,55.4,45.0,30.15,SSW,199,12.7,12.7,68,0.00,CLR,,0.00,WeatherDisplay:10.37,2013-02-14 12:20:00,
2013-02-14 13:25:00,54.9,44.5,30.15,SSE,161,13.8,13.8,68,0.00,CLR,,0.00,WeatherDisplay:10.37,2013-02-14 12:25:00,
2013-02-14 13:30:00,54.9,44.9,30.15,SSW,208,11.5,11.5,69,0.00,CLR,,0.00,WeatherDisplay:10.37,2013-02-14 12:30:00,
2013-02-14 13:35:00,55.7,44.9,30.14,SSE,168,11.5,11.5,67,0.00,CLR,,0.00,WeatherDisplay:10.37,2013-02-14 12:35:00,
2013-02-14 13:40:00,55.0,44.6,30.14,SSE,162,12.7,12.7,68,0.00,CLR,,0.00,WeatherDisplay:10.37,2013-02-14 12:40:00,
2013-02-14 13:45:00,54.6,44.6,30.14,SSW,213,11.5,11.5,69,0.00,CLR,,0.00,WeatherDisplay:10.37,2013-02-14 12:45:00,
2013-02-14 13:50:00,54.4,44.1,30.14,South,170,11.5,11.5,68,0.00,CLR,,0.00,WeatherDisplay:10.37,2013-02-14 12:50:00,
2013-02-14 13:55:00,54.5,44.9,30.14,South,172,11.5,11.5,70,0.00,CLR,,0.00,WeatherDisplay:10.37,2013-02-14 12:55:00,
2013-02-14 14:00:00,55.0,45.4,30.14,SE,138,12.7,12.7,70,0.00,CLR,,0.00,WeatherDisplay:10.37,2013-02-14 13:00:00,
2013-02-14 14:05:00,54.9,44.9,30.14,SSE,168,11.5,11.5,69,0.00,CLR,,0.00,WeatherDisplay:10.37,2013-02-14 13:05:00,
2013-02-14 14:10:00,54.7,45.1,30.14,SE,143,7.0,7.0,70,0.00,CLR,,0.00,WeatherDisplay:10.37,2013-02-14 13:10:00,
2013-02-14 14:15:00,54.6,45.4,30.14,South,177,12.7,12.7,71,0.00,CLR,,0.00,WeatherDisplay:10.37,2013-02-14 13:15:00,
2013-02-14 14:20:00,54.4,45.2,30.14,SSE,158,10.4,10.4,71,0.00,CLR,,0.00,WeatherDisplay:10.37,2013-02-14 13:20:00,
2013-02-14 14:25:00,54.3,45.1,30.14,South,178,13.0,13.0,71,0.00,CLR,,0.00,WeatherDisplay:10.37,2013-02-14 13:25:00,
2013-02-14 14:30:00,54.2,45.0,30.13,South,179,11.5,11.5,71,0.00,CLR,,0.00,WeatherDisplay:10.37,2013-02-14 13:30:00,
2013-02-14 14:35:00,54.2,45.4,30.13,SSE,160,11.5,11.5,72,0.00,CLR,,0.00,WeatherDisplay:10.37,2013-02-14 13:35:00,
2013-02-14 14:40:00,54.1,45.3,30.13,SSE,158,15.0,15.0,72,0.00,CLR,,0.00,WeatherDisplay:10.37,2013-02-14 13:40:00,
2013-02-14 14:45:00,54.0,45.2,30.13,South,180,12.7,12.7,72,0.00,CLR,,0.00,WeatherDisplay:10.37,2013-02-14 13:45:00,
2013-02-14 14:50:00,54.5,46.0,30.13,SSE,158,11.5,11.5,73,0.00,CLR,,0.00,WeatherDisplay:10.37,2013-02-14 13:50:00,
2013-02-14 14:55:00,55.2,46.3,30.13,South,178,13.0,13.0,72,0.00,CLR,,0.00,WeatherDisplay:10.37,2013-02-14 13:55:00,
2013-02-14 15:00:00,54.7,45.5,30.13,SSW,196,16.1,16.1,71,0.00,CLR,,0.00,WeatherDisplay:10.37,2013-02-14 14:00:00,
2013-02-14 15:05:00,54.8,46.3,30.13,South,191,13.8,13.8,73,0.00,CLR,,0.00,WeatherDisplay:10.37,2013-02-14 14:05:00,
2013-02-14 15:10:00,55.2,46.7,30.13,SSE,158,11.5,11.5,73,0.00,CLR,,0.00,WeatherDisplay:10.37,2013-02-14 14:10:00,
2013-02-14 15:15:00,55.5,46.6,30.13,SSE,147,9.2,9.2,72,0.00,CLR,,0.00,WeatherDisplay:10.37,2013-02-14 14:15:00,
2013-02-14 15:20:00,55.1,46.2,30.13,SSW,197,11.5,11.5,72,0.00,CLR,,0.00,WeatherDisplay:10.37,2013-02-14 14:20:00,
2013-02-14 15:25:00,55.1,46.6,30.13,SSE,168,9.2,9.2,73,0.00,CLR,,0.00,WeatherDisplay:10.37,2013-02-14 14:25:00,
2013-02-14 15:30:00,55.4,46.9,30.13,SE,140,10.4,10.4,73,0.00,CLR,,0.00,WeatherDisplay:10.37,2013-02-14 14:30:00,
2013-02-14 15:35:00,55.4,46.9,30.13,South,191,8.1,8.1,73,0.00,CLR,,0.00,WeatherDisplay:10.37,2013-02-14 14:35:00,
2013-02-14 15:40:00,55.7,46.8,30.12,SSE,156,8.0,8.0,72,0.00,CLR,,0.00,WeatherDisplay:10.37,2013-02-14 14:40:00,
2013-02-14 15:45:00,55.8,46.5,30.12,SE,135,6.9,6.9,71,0.00,CLR,,0.00,WeatherDisplay:10.37,2013-02-14 14:45:00,
2013-02-14 15:50:00,56.0,47.1,30.13,SSW,201,3.5,3.5,72,0.00,CLR,,0.00,WeatherDisplay:10.37,2013-02-14 14:50:00,
2013-02-14 15:55:00,56.1,46.8,30.13,SSE,157,9.2,9.2,71,0.00,CLR,,0.00,WeatherDisplay:10.37,2013-02-14 14:55:00,
2013-02-14 16:00:00,56.2,46.9,30.13,SSE,167,8.1,8.1,71,0.00,CLR,,0.00,WeatherDisplay:10.37,2013-02-14 15:00:00,
2013-02-14 16:05:00,55.8,46.5,30.13,SSE,161,6.9,6.9,71,0.00,CLR,,0.00,WeatherDisplay:10.37,2013-02-14 15:05:00,
2013-02-14 16:10:00,55.7,46.4,30.13,South,180,8.1,8.1,71,0.00,CLR,,0.00,WeatherDisplay:10.37,2013-02-14 15:10:00,
2013-02-14 16:15:00,56.0,47.1,30.13,South,172,6.9,6.9,72,0.00,CLR,,0.00,WeatherDisplay:10.37,2013-02-14 15:15:00,
2013-02-14 16:20:00,56.5,46.8,30.13,WSW,243,9.2,9.2,70,0.00,CLR,,0.00,WeatherDisplay:10.37,2013-02-14 15:20:00,
2013-02-14 16:25:00,57.1,47.0,30.13,South,171,6.9,6.9,69,0.00,CLR,,0.00,WeatherDisplay:10.37,2013-02-14 15:25:00,
2013-02-14 16:30:00,56.0,46.7,30.13,South,172,5.8,5.8,71,0.00,CLR,,0.00,WeatherDisplay:10.37,2013-02-14 15:30:00,
2013-02-14 16:35:00,55.4,46.9,30.13,South,176,9.2,9.2,73,0.00,CLR,,0.00,WeatherDisplay:10.37,2013-02-14 15:35:00,
2013-02-14 16:40:00,55.1,47.0,30.13,SSW,204,9.0,9.0,74,0.00,CLR,,0.00,WeatherDisplay:10.37,2013-02-14 15:40:00,
2013-02-14 16:45:00,55.3,46.8,30.13,SW,225,11.0,11.0,73,0.00,CLR,,0.00,WeatherDisplay:10.37,2013-02-14 15:45:00,
2013-02-14 16:50:00,55.6,46.7,30.13,SW,220,11.5,11.5,72,0.00,CLR,,0.00,WeatherDisplay:10.37,2013-02-14 15:50:00,
2013-02-14 16:55:00,55.4,46.5,30.13,WSW,241,13.8,13.8,72,0.00,CLR,,0.00,WeatherDisplay:10.37,2013-02-14 15:55:00,
2013-02-14 17:00:00,55.8,47.3,30.13,WSW,248,9.2,9.2,73,0.00,CLR,,0.00,WeatherDisplay:10.37,2013-02-14 16:00:00,
2013-02-14 17:05:00,55.8,47.3,30.12,SW,229,11.5,11.5,73,0.00,CLR,,0.00,WeatherDisplay:10.37,2013-02-14 16:05:00,
2013-02-14 17:10:00,55.8,46.9,30.12,West,274,11.5,11.5,72,0.00,CLR,,0.00,WeatherDisplay:10.37,2013-02-14 16:10:00,
2013-02-14 17:15:00,55.4,46.9,30.12,WSW,241,11.5,11.5,73,0.00,CLR,,0.00,WeatherDisplay:10.37,2013-02-14 16:15:00,
2013-02-14 17:20:00,55.2,46.7,30.12,SW,235,15.0,15.0,73,0.00,CLR,,0.00,WeatherDisplay:10.37,2013-02-14 16:20:00,
2013-02-14 17:25:00,55.1,47.0,30.12,WSW,249,10.4,10.4,74,0.00,CLR,,0.00,WeatherDisplay:10.37,2013-02-14 16:25:00,
2013-02-14 17:30:00,55.2,47.1,30.13,WSW,239,9.2,9.2,74,0.00,CLR,,0.00,WeatherDisplay:10.37,2013-02-14 16:30:00,
2013-02-14 17:35:00,55.0,46.5,30.12,West,260,12.7,12.7,73,0.00,CLR,,0.00,WeatherDisplay:10.37,2013-02-14 16:35:00,
2013-02-14 17:40:00,54.8,47.0,30.12,West,265,13.0,13.0,75,0.00,CLR,,0.00,WeatherDisplay:10.37,2013-02-14 16:40:00,
2013-02-14 17:45:00,54.6,46.8,30.13,WSW,240,10.4,10.4,75,0.00,CLR,,0.00,WeatherDisplay:10.37,2013-02-14 16:45:00,
2013-02-14 17:50:00,54.5,47.1,30.13,West,262,11.5,11.5,76,0.00,CLR,,0.00,WeatherDisplay:10.37,2013-02-14 16:50:00,
2013-02-14 17:55:00,54.3,47.6,30.13,WSW,251,11.5,11.5,78,0.00,CLR,,0.00,WeatherDisplay:10.37,2013-02-14 16:55:00,
2013-02-14 18:00:00,54.0,48.0,30.13,SW,232,10.4,10.4,80,0.00,CLR,,0.00,WeatherDisplay:10.37,2013-02-14 17:00:00,
2013-02-14 18:05:00,53.6,48.2,30.13,SW,235,13.0,13.0,82,0.00,CLR,,0.00,WeatherDisplay:10.37,2013-02-14 17:05:00,
2013-02-14 18:10:00,53.3,48.3,30.13,WSW,243,12.7,12.7,83,0.00,CLR,,0.00,WeatherDisplay:10.37,2013-02-14 17:10:00,
2013-02-14 18:15:00,53.1,48.4,30.13,WSW,249,9.2,9.2,84,0.00,CLR,,0.00,WeatherDisplay:10.37,2013-02-14 17:15:00,
2013-02-14 18:20:00,52.8,48.4,30.13,SW,220,11.5,11.5,85,0.00,CLR,,0.00,WeatherDisplay:10.37,2013-02-14 17:20:00,
2013-02-14 18:25:00,52.5,48.1,30.13,SSW,213,11.5,11.5,85,0.00,CLR,,0.00,WeatherDisplay:10.37,2013-02-14 17:25:00,
2013-02-14 18:30:00,52.3,48.2,30.13,WSW,241,8.1,8.1,86,0.00,CLR,,0.00,WeatherDisplay:10.37,2013-02-14 17:30:00,
2013-02-14 18:35:00,52.1,48.0,30.13,WSW,256,9.2,9.2,86,0.00,CLR,,0.00,WeatherDisplay:10.37,2013-02-14 17:35:00,
2013-02-14 18:40:00,51.9,47.8,30.13,WSW,255,7.0,7.0,86,0.00,CLR,,0.00,WeatherDisplay:10.37,2013-02-14 17:40:00,
2013-02-14 18:45:00,51.9,48.2,30.13,WSW,241,8.1,8.1,87,0.00,CLR,,0.00,WeatherDisplay:10.37,2013-02-14 17:45:00,
2013-02-14 18:50:00,51.8,48.1,30.13,WSW,247,10.0,10.0,87,0.00,CLR,,0.00,WeatherDisplay:10.37,2013-02-14 17:50:00,
2013-02-14 18:55:00,51.8,47.7,30.14,WSW,256,8.1,8.1,86,0.00,CLR,,0.00,WeatherDisplay:10.37,2013-02-14 17:55:00,
2013-02-14 19:00:00,51.7,47.6,30.14,WSW,247,11.5,11.5,86,0.00,CLR,,0.00,WeatherDisplay:10.37,2013-02-14 18:00:00,
2013-02-14 19:05:00,51.6,47.5,30.14,WSW,252,9.2,9.2,86,0.00,CLR,,0.00,WeatherDisplay:10.37,2013-02-14 18:05:00,
2013-02-14 19:10:00,51.6,47.5,30.14,West,265,8.1,8.1,86,0.00,CLR,,0.00,WeatherDisplay:10.37,2013-02-14 18:10:00,
2013-02-14 19:15:00,51.7,47.6,30.14,West,263,10.4,10.4,86,0.00,CLR,,0.00,WeatherDisplay:10.37,2013-02-14 18:15:00,
2013-02-14 19:20:00,51.7,47.6,30.15,West,266,10.4,10.4,86,0.00,CLR,,0.00,WeatherDisplay:10.37,2013-02-14 18:20:00,
2013-02-14 19:25:00,51.7,47.6,30.15,West,261,9.2,9.2,86,0.00,CLR,,0.00,WeatherDisplay:10.37,2013-02-14 18:25:00,
2013-02-14 19:30:00,51.7,47.6,30.15,West,265,9.2,9.2,86,0.00,CLR,,0.00,WeatherDisplay:10.37,2013-02-14 18:30:00,
2013-02-14 19:35:00,51.5,47.5,30.15,WSW,256,8.1,8.1,86,0.00,CLR,,0.00,WeatherDisplay:10.37,2013-02-14 18:35:00,
2013-02-14 19:40:00,51.5,47.5,30.15,West,261,8.1,8.1,86,0.00,CLR,,0.00,WeatherDisplay:10.37,2013-02-14 18:40:00,
2013-02-14 19:45:00,51.5,47.5,30.15,West,260,9.2,9.2,86,0.00,CLR,,0.00,WeatherDisplay:10.37,2013-02-14 18:45:00,
2013-02-14 19:50:00,51.6,47.5,30.15,WSW,258,9.2,9.2,86,0.00,CLR,,0.00,WeatherDisplay:10.37,2013-02-14 18:50:00,
2013-02-14 19:55:00,51.6,47.2,30.15,WSW,246,8.1,8.1,85,0.00,CLR,,0.00,WeatherDisplay:10.37,2013-02-14 18:55:00,
2013-02-14 20:00:00,51.6,47.5,30.15,West,276,8.1,8.1,86,0.00,CLR,,0.00,WeatherDisplay:10.37,2013-02-14 19:00:00,
2013-02-14 20:05:00,51.6,47.5,30.15,WSW,245,8.1,8.1,86,0.00,CLR,,0.00,WeatherDisplay:10.37,2013-02-14 19:05:00,
2013-02-14 20:10:00,51.6,47.5,30.15,West,262,8.1,8.1,86,0.00,CLR,,0.00,WeatherDisplay:10.37,2013-02-14 19:10:00,
2013-02-14 20:15:00,51.7,47.6,30.15,WSW,256,9.2,9.2,86,0.00,CLR,,0.00,WeatherDisplay:10.37,2013-02-14 19:15:00,
2013-02-14 20:20:00,51.7,47.6,30.15,WSW,239,8.1,8.1,86,0.00,CLR,,0.00,WeatherDisplay:10.37,2013-02-14 19:20:00,
2013-02-14 20:25:00,51.6,47.5,30.15,West,262,9.2,9.2,86,0.00,CLR,,0.00,WeatherDisplay:10.37,2013-02-14 19:25:00,
2013-02-14 20:30:00,51.6,47.5,30.15,WSW,246,8.1,8.1,86,0.00,CLR,,0.00,WeatherDisplay:10.37,2013-02-14 19:30:00,
2013-02-14 20:35:00,51.6,47.5,30.15,WSW,247,9.2,9.2,86,0.00,CLR,,0.00,WeatherDisplay:10.37,2013-02-14 19:35:00,
2013-02-14 20:40:00,51.6,47.5,30.15,SW,234,8.1,8.1,86,0.00,CLR,,0.00,WeatherDisplay:10.37,2013-02-14 19:40:00,
2013-02-14 20:45:00,51.5,47.5,30.15,WSW,251,8.1,8.1,86,0.00,CLR,,0.00,WeatherDisplay:10.37,2013-02-14 19:45:00,
2013-02-14 20:50:00,51.5,47.5,30.15,WSW,244,9.2,9.2,86,0.00,CLR,,0.00,WeatherDisplay:10.37,2013-02-14 19:50:00,
2013-02-14 20:55:00,51.7,47.6,30.16,West,260,9.2,9.2,86,0.00,CLR,,0.00,WeatherDisplay:10.37,2013-02-14 19:55:00,
2013-02-14 21:00:00,51.6,47.5,30.16,West,264,6.9,6.9,86,0.00,CLR,,0.00,WeatherDisplay:10.37,2013-02-14 20:00:00,
2013-02-14 21:05:00,51.6,47.5,30.16,WSW,249,8.1,8.1,86,0.00,CLR,,0.00,WeatherDisplay:10.37,2013-02-14 20:05:00,
2013-02-14 21:10:00,51.7,47.6,30.16,West,260,6.9,6.9,86,0.00,CLR,,0.00,WeatherDisplay:10.37,2013-02-14 20:10:00,
2013-02-14 21:15:00,51.7,47.3,30.16,WSW,247,8.1,8.1,85,0.00,CLR,,0.00,WeatherDisplay:10.37,2013-02-14 20:15:00,
2013-02-14 21:20:00,51.7,47.3,30.16,West,266,8.1,8.1,85,0.00,CLR,,0.00,WeatherDisplay:10.37,2013-02-14 20:20:00,
2013-02-14 21:25:00,51.7,47.3,30.16,WSW,241,8.0,8.0,85,0.00,CLR,,0.00,WeatherDisplay:10.37,2013-02-14 20:25:00,
2013-02-14 21:30:00,51.7,47.6,30.16,WSW,248,8.1,8.1,86,0.00,CLR,,0.00,WeatherDisplay:10.37,2013-02-14 20:30:00,
2013-02-14 21:35:00,51.6,47.5,30.16,WSW,240,6.9,6.9,86,0.00,CLR,,0.00,WeatherDisplay:10.37,2013-02-14 20:35:00,
2013-02-14 21:40:00,51.8,47.7,30.16,WSW,250,9.2,9.2,86,0.00,CLR,,0.00,WeatherDisplay:10.37,2013-02-14 20:40:00,
2013-02-14 21:45:00,51.6,47.5,30.16,WSW,251,6.9,6.9,86,0.00,CLR,,0.00,WeatherDisplay:10.37,2013-02-14 20:45:00,
2013-02-14 21:50:00,51.6,47.5,30.16,SW,228,9.2,9.2,86,0.00,CLR,,0.00,WeatherDisplay:10.37,2013-02-14 20:50:00,
2013-02-14 21:55:00,51.6,47.5,30.16,WSW,255,8.1,8.1,86,0.00,CLR,,0.00,WeatherDisplay:10.37,2013-02-14 20:55:00,
2013-02-14 22:00:00,51.4,47.7,30.16,WSW,244,8.1,8.1,87,0.00,CLR,,0.00,WeatherDisplay:10.37,2013-02-14 21:00:00,
2013-02-14 22:05:00,51.5,47.8,30.16,WSW,238,9.2,9.2,87,0.00,CLR,,0.00,WeatherDisplay:10.37,2013-02-14 21:05:00,
2013-02-14 22:10:00,51.4,47.7,30.16,WSW,246,8.1,8.1,87,0.00,CLR,,0.00,WeatherDisplay:10.37,2013-02-14 21:10:00,
2013-02-14 22:15:00,51.3,47.6,30.16,WSW,252,8.1,8.1,87,0.00,CLR,,0.00,WeatherDisplay:10.37,2013-02-14 21:15:00,
2013-02-14 22:20:00,51.2,47.5,30.16,WSW,245,8.1,8.1,87,0.00,CLR,,0.00,WeatherDisplay:10.37,2013-02-14 21:20:00,
2013-02-14 22:25:00,51.3,47.6,30.16,WSW,256,6.9,6.9,87,0.00,CLR,,0.00,WeatherDisplay:10.37,2013-02-14 21:25:00,
2013-02-14 22:30:00,51.3,47.6,30.16,West,266,6.9,6.9,87,0.00,CLR,,0.00,WeatherDisplay:10.37,2013-02-14 21:30:00,
2013-02-14 22:35:00,51.3,47.6,30.16,WSW,258,6.9,6.9,87,0.00,CLR,,0.00,WeatherDisplay:10.37,2013-02-14 21:35:00,
2013-02-14 22:40:00,51.2,47.5,30.16,West,276,6.9,6.9,87,0.00,CLR,,0.00,WeatherDisplay:10.37,2013-02-14 21:40:00,
2013-02-14 22:45:00,51.2,47.5,30.16,West,274,8.1,8.1,87,0.00,CLR,,0.00,WeatherDisplay:10.37,2013-02-14 21:45:00,
2013-02-14 22:50:00,51.3,47.6,30.16,West,263,7.0,7.0,87,0.00,CLR,,0.00,WeatherDisplay:10.37,2013-02-14 21:50:00,
2013-02-14 22:55:00,51.2,47.5,30.16,West,264,9.0,9.0,87,0.00,CLR,,0.00,WeatherDisplay:10.37,2013-02-14 21:55:00,
2013-02-14 23:00:00,51.3,47.6,30.16,West,260,8.1,8.1,87,0.00,CLR,,0.00,WeatherDisplay:10.37,2013-02-14 22:00:00,
2013-02-14 23:05:00,51.4,47.7,30.16,WSW,252,7.0,7.0,87,0.00,CLR,,0.00,WeatherDisplay:10.37,2013-02-14 22:05:00,
2013-02-14 23:10:00,51.5,47.8,30.16,WSW,258,6.9,6.9,87,0.00,CLR,,0.00,WeatherDisplay:10.37,2013-02-14 22:10:00,
2013-02-14 23:15:00,51.4,47.7,30.16,WSW,257,6.9,6.9,87,0.00,CLR,,0.00,WeatherDisplay:10.37,2013-02-14 22:15:00,
2013-02-14 23:20:00,51.4,47.7,30.16,WSW,253,6.9,6.9,87,0.00,CLR,,0.00,WeatherDisplay:10.37,2013-02-14 22:20:00,
2013-02-14 23:25:00,51.3,47.6,30.16,West,266,6.0,6.0,87,0.00,CLR,,0.00,WeatherDisplay:10.37,2013-02-14 22:25:00,
2013-02-14 23:30:00,51.3,47.6,30.16,WSW,250,6.0,6.0,87,0.00,CLR,,0.00,WeatherDisplay:10.37,2013-02-14 22:30:00,
2013-02-14 23:35:00,51.3,47.6,30.16,West,273,6.9,6.9,87,0.00,CLR,,0.00,WeatherDisplay:10.37,2013-02-14 22:35:00,
2013-02-14 23:40:00,51.3,47.6,30.16,WSW,256,6.9,6.9,87,0.00,CLR,,0.00,WeatherDisplay:10.37,2013-02-14 22:40:00,
2013-02-14 23:45:00,51.6,47.9,30.15,SW,232,6.9,6.9,87,0.00,CLR,,0.00,WeatherDisplay:10.37,2013-02-14 22:45:00,
2013-02-14 23:50:00,51.8,48.1,30.15,SW,226,8.1,8.1,87,0.00,CLR,,0.00,WeatherDisplay:10.37,2013-02-14 22:50:00,
2013-02-14 23:55:00,51.8,47.7,30.15,SW,231,8.1,8.1,86,0.00,CLR,,0.00,WeatherDisplay:10.37,2013-02-14 22:55:00,